Regional Weather Roundup
Issued by NWS

Home | Current Version | Previous Version | Text Only | Print | Product List | Glossary Off
Versions: 1 2 3 4 5 6 7 8 9 10 11 12 13 14 15 16 17 18 19 20 21 22 23 24 25 26 27 28 29 30 31 32 33 34 35 36 37 38 39 40 41 42 43 44 45 46 47 48 49 50

000
ASUS43 KTOP 202208
RWRKS

WEATHER ROUNDUP FOR KANSAS
NATIONAL WEATHER SERVICE GOODLAND KS
500 PM CDT WED SEP 20 2017

NOTE:  "FAIR" INDICATES FEW OR NO CLOUDS BELOW 12,000 FEET WITH NO
SIGNIFICANT WEATHER AND/OR OBSTRUCTIONS TO VISIBILITY.

KSZ001>006-013>018-027>032-041>047-202300-
NORTHWEST KANSAS

CITY           SKY/WX    TMP DP  RH WIND       PRES   REMARKS
GOODLAND       SUNNY     77  32  19 S12G23    29.89F
HAYS           SUNNY     85  38  18 NE10      29.84S
HILL CITY      SUNNY     83  32  16 E6        29.86F
RUSSELL        SUNNY     87  43  21 NE10G20   29.82S
$$

KSZ061>065-074>080-084>089-202300-
SOUTHWEST KANSAS

CITY           SKY/WX    TMP DP  RH WIND       PRES   REMARKS
DODGE CITY     SUNNY     85  41  21 MISG      29.85F
ELKHART          N/A     79  44  28 SE7         N/A
GARDEN CITY    SUNNY     83  35  18 E12       29.87F
GREAT BEND     SUNNY     85  52  32 NE14      29.82F
LIBERAL        SUNNY     83  45  26 E8        29.88F
PRATT          SUNNY     85  48  27 E7        29.82S
$$

KSZ066>073-081>083-090>101-202300-
SOUTHEAST KANSAS

CITY           SKY/WX    TMP DP  RH WIND       PRES   REMARKS
CHANUTE        PTSUNNY   89  73  59 S15       29.80S HX  97
COFFEYVILLE    SUNNY     92  73  53 S16G23    29.78S HX 100
HUTCHINSON     SUNNY     88  60  38 E6        29.79F
MEDICINE LODGE   N/A     87  56  34 VRB6      29.78F
NEWTON         SUNNY     90  67  46 SW10      29.80S
WICHITA INTL   MOSUNNY   90  67  46 S14       29.77F
WICHITA JABRA  MOSUNNY   88  69  53 S14       29.78F
WICHITA MCCONL MOSUNNY   91  67  45 S14       29.78F
WINFIELD       MOSUNNY   93  72  50 S12       29.78F HX 101
$$

KSZ007>012-019>026-033>040-048>060-102>105-202300-
NORTHEAST KANSAS

CITY           SKY/WX    TMP DP  RH WIND       PRES   REMARKS
CONCORDIA      SUNNY     84  56  38 NE9       29.82S
EMPORIA        PTSUNNY   88  69  53 S12G21    29.79S
LAWRENCE       PTSUNNY   87  73  62 S9        29.78F
MANHATTAN      SUNNY     88  64  44 SW6       29.78S
MARYSVILLE     SUNNY     86  59  39 NE9       29.82R
OLATHE IND     MOSUNNY   87  73  62 SW13      29.81F
OLATHE EXE     PTSUNNY   85  74  69 SW8       29.81S
SALINA         SUNNY     88  56  33 VRB6      29.80F
TOPEKA BILLARD CLOUDY    88  72  58 S8        29.77S
TOPEKA FORBES  CLOUDY    89  71  55 S10       29.79R HX  95
$$




USA.gov is the U.S. government's official web portal to all federal, state and local government web resources and services.